sat.trackr.live / text

‹ back to catalog

STARLINK-5602

NORAD 55743 · 2023-028C

PAYLOAD ACTIVE UNKNOWN

§ Identity

Operator
Country
US
Launch date
2023-03-03
Launch site
AFWTR
Launch vehicle
Mass (kg)
RCS (m²)

Purposes: comms

External: N2YO · Heavens-Above · Gunter

§ Orbital elements

Epoch: 2026-09-20T22:00:03.000096Z

Period
95.75 min
Inclination
69.9992°
Eccentricity
0.0006054
Mean motion
15.03845777 rev/d
Perigee alt
550.9 km
Apogee alt
559.2 km
Semi-major
6,933.2 km
B*
5.4066e-3
RAAN
112.3450°
Arg perigee
261.7542°
Mean anomaly
338.1096°
Rev number
561

§ Raw data

STARLINK-56021 55743U 23028C   26263.91670139  .00075269  00000+0  54066-2 0  99952 55743  69.9992 112.3450 0006054 261.7542 338.1096 15.03845777  5617

JSON: /api/v1/satellites/55743 · /tle

For live sub-satellite position, see the globe view (requires WebGL).

§ Visibility from observer

Set your observer location to see the next 7 days of passes ≥ 10°. The values pass through the URL so the page stays shareable.

No JS? Fill the form by hand. The geolocation button needs JavaScript.